sat.trackr.live / text

‹ back to catalog

STARLINK-36564

NORAD 67549 · 2026-014T

PAYLOAD ACTIVE UNKNOWN

§ Identity

Operator
Country
US
Launch date
2026-01-22
Launch site
AFWTR
Launch vehicle
Mass (kg)
RCS (m²)

Purposes: comms

External: N2YO · Heavens-Above · Gunter

§ Orbital elements

Epoch: 2026-05-25T02:48:06.353280Z

Period
93.91 min
Inclination
97.2866°
Eccentricity
0.0001609
Mean motion
15.33454610 rev/d
Perigee alt
464.4 km
Apogee alt
466.6 km
Semi-major
6,843.7 km
B*
5.9688e-4
RAAN
32.1258°
Arg perigee
91.9686°
Mean anomaly
268.1741°
Rev number
2,043

§ Raw data

STARLINK-365641 67549U 26014T   26145.11674020  .00019250  00000+0  59688-3 0  99982 67549  97.2866  32.1258 0001609  91.9686 268.1741 15.33454610 20437

JSON: /api/v1/satellites/67549 · /tle

For live sub-satellite position, see the globe view (requires WebGL).

§ Visibility from observer

Set your observer location to see the next 7 days of passes ≥ 10°. The values pass through the URL so the page stays shareable.

No JS? Fill the form by hand. The geolocation button needs JavaScript.